Buffalo, NY

5:33 AM EDT on October 22, 2017 (GMT -0400)
Buffalo Niagara International

Weather History for KBUF - September, 2012

Change the Weather History Date:

Monday, September 17, 2012

  Actual Average Record
Temperature  
Mean Temperature 65 °F 62 °F  
Max Temperature 75 °F 71 °F 86 °F (1955)
Min Temperature 54 °F 53 °F 33 °F (1959)
Degree Days  
Heating Degree Days 0 5  
Month to date heating degree days 20 48  
Since 1 July heating degree days 21 75  
Cooling Degree Days 0 1  
Month to date cooling degree days 78 42  
Year to date cooling degree days 871 529  
Growing Degree Days 14 (Base 50)    
Moisture  
Dew Point 49 °F    
Average Humidity 59    
Maximum Humidity 83    
Minimum Humidity 35    
Precipitation  
Precipitation 0.00 in 0.14 in 2.87 in (1976)
Month to date precipitation 2.96 2.06  
Year to date precipitation 19.70 27.22  
Snow  
Snow 0.00 in 0.00 in 0.00 in ()
Month to date snowfall 0.0 0.0  
Since 1 July snowfall 0.0 0.0  
Since 1 September snowfall 0.0 0.0  
Snow Depth 0.00 in    
Sea Level Pressure  
Sea Level Pressure 29.97 in    
Wind  
Wind Speed 7 mph (South)    
Max Wind Speed 21 mph    
Max Gust Speed 25 mph    
Visibility 10 miles    
Events      
T = Trace of Precipitation, MM = Missing Value Source: NWS Daily Summary

Daily Weather History Graph

Daily Weather History Graph

Search for Another Location

Airport or City:

Trip Planner

Search our weather history database for the weather conditions in past years. The results will help you decide how hot, cold, wet, or windy it might be!

Date:

Astronomy

Sep. 17, 2012 Rise Set
Actual Time 6:57 AM EDT 7:20 PM EDT
Civil Twilight 6:28 AM EDT 7:48 PM EDT
Nautical Twilight 5:55 AM EDT 8:22 PM EDT
Astronomical Twilight 5:20 AM EDT 8:56 PM EDT
Moon 8:48 AM EDT (9/17) 7:56 PM EDT (9/17)
Length of Visible Light 13h 19m
Length of Day
12h 23m
Waxing Crescent, 3% of the Moon is Illuminated
Sep 17
Waxing Crescent
Sep 22
First Quarter
Sep 29
Full
Oct 8
Last Quarter
Oct 15
New

Hourly Weather History & Observations

Time (EDT) Temp. Dew Point Humidity Pressure Visibility Wind Dir Wind Speed Gust Speed Precip Events Conditions
12:54 AM 57.9 °F 50.0 °F 75% 30.04 in 10.0 mi SSW 5.8 mph - N/A   Partly Cloudy
1:54 AM 57.0 °F 48.9 °F 74% 30.05 in 10.0 mi SSW 6.9 mph - N/A   Scattered Clouds
2:54 AM 57.0 °F 48.9 °F 74% 30.04 in 10.0 mi SSW 6.9 mph - N/A   Partly Cloudy
3:54 AM 57.0 °F 48.9 °F 74% 30.04 in 10.0 mi South 4.6 mph - N/A   Partly Cloudy
4:54 AM 55.4 °F 48.2 °F 77% 30.04 in 10.0 mi South 5.8 mph - N/A   Partly Cloudy
5:54 AM 55.9 °F 48.9 °F 77% 30.04 in 10.0 mi South 5.8 mph - N/A   Partly Cloudy
6:54 AM 54.0 °F 48.0 °F 80% 30.04 in 10.0 mi SSE 5.8 mph - N/A   Partly Cloudy
7:54 AM 55.0 °F 48.9 °F 80% 30.05 in 10.0 mi South 8.1 mph - N/A   Partly Cloudy
8:54 AM 60.1 °F 50.0 °F 69% 30.05 in 10.0 mi South 4.6 mph - N/A   Partly Cloudy
9:54 AM 64.9 °F 51.1 °F 61% 30.04 in 10.0 mi South 6.9 mph - N/A   Partly Cloudy
10:54 AM 70.0 °F 52.0 °F 53% 30.03 in 10.0 mi South 9.2 mph - N/A   Scattered Clouds
11:54 AM 72.0 °F 50.0 °F 46% 30.01 in 10.0 mi SSW 10.4 mph - N/A   Scattered Clouds
12:54 PM 73.0 °F 46.9 °F 39% 29.99 in 10.0 mi South 11.5 mph 20.7 mph N/A   Scattered Clouds
1:54 PM 73.9 °F 45.0 °F 35% 29.96 in 10.0 mi South 13.8 mph 18.4 mph N/A   Scattered Clouds
2:54 PM 73.9 °F 48.0 °F 40% 29.94 in 10.0 mi WSW 9.2 mph - N/A   Mostly Cloudy
3:54 PM 73.0 °F 48.9 °F 42% 29.91 in 10.0 mi SSW 6.9 mph - N/A   Mostly Cloudy
4:54 PM 72.0 °F 48.9 °F 44% 29.91 in 10.0 mi WSW 6.9 mph - N/A   Mostly Cloudy
5:54 PM 71.1 °F 48.0 °F 44% 29.91 in 10.0 mi SW 9.2 mph - N/A   Mostly Cloudy
6:54 PM 68.0 °F 48.0 °F 49% 29.90 in 10.0 mi SW 4.6 mph - N/A   Overcast
7:54 PM 66.9 °F 48.9 °F 52% 29.89 in 10.0 mi South 3.5 mph - N/A   Overcast
8:54 PM 66.0 °F 50.0 °F 56% 29.88 in 10.0 mi SE 4.6 mph - N/A   Overcast
9:54 PM 63.0 °F 51.1 °F 65% 29.87 in 10.0 mi SE 8.1 mph - N/A   Overcast
10:54 PM 63.0 °F 51.1 °F 65% 29.85 in 10.0 mi SE 8.1 mph - N/A   Overcast
11:54 PM 62.1 °F 51.1 °F 67% 29.82 in 10.0 mi SE 5.8 mph - N/A   Overcast